Weather History for Tarboro, NC

Change the Weather History Date:

Sunday, February 23, 2014

  Actual Average Record
Temperature  
Mean Temperature 50 °F -  
Max Temperature 67 °F 60 °F 81 °F (1975)
Min Temperature 32 °F 36 °F 11 °F (1978)
Degree Days  
Heating Degree Days 16    
Moisture  
Dew Point 37 °F    
Average Humidity 67    
Maximum Humidity 99    
Minimum Humidity 31    
Precipitation  
Precipitation 0.00 in - - ()
Sea Level Pressure  
Sea Level Pressure 30.02 in    
Wind  
Wind Speed 2 mph (SSW)    
Max Wind Speed 10 mph    
Max Gust Speed 17 mph    
Visibility 8 miles    
Events Fog    
Averages and records for this station are not official NWS values.
T = Trace of Precipitation, MM = Missing Value Source: NWS Daily Summary

Daily Weather History Graph

Daily Weather History Graph

Search for Another Location

Airport:

Trip Planner

Search our weather history database for the weather conditions in past years. The results will help you decide how hot, cold, wet, or windy it might be!

Date:

Astronomy

Feb. 23, 2014 Rise Set
Actual Time 6:47 AM EST 5:59 PM EST
Civil Twilight 6:22 AM EST 6:25 PM EST
Nautical Twilight 5:52 AM EST 6:55 PM EST
Astronomical Twilight 5:22 AM EST 7:24 PM EST
Moon 1:38 AM EST (2/23) 12:05 PM EST (2/23)
Length of Visible Light 12h 03m
Length of Day
11h 11m
Last Quarter, 39% of the Moon is Illuminated
Feb 23
Last Quarter
Mar 1
New
Mar 8
First Quarter
Mar 16
Full
Mar 23
Last Quarter

Hourly Weather History & Observations

Time (EST) Temp. Dew Point Humidity Pressure Visibility Wind Dir Wind Speed Gust Speed Precip Events Conditions
12:15 AM 38.3 °F 36.9 °F 95% 30.12 in 0.8 mi Calm Calm - N/A   Mist
12:35 AM 37.6 °F 36.3 °F 95% 30.12 in 4.0 mi Calm Calm - N/A   Clear
12:55 AM 37.0 °F 36.0 °F 96% 30.12 in 0.5 mi Calm Calm - N/A Fog Fog
1:15 AM 36.9 °F 35.8 °F 96% 30.12 in 7.0 mi Calm Calm - N/A   Scattered Clouds
1:35 AM 35.6 °F 34.5 °F 96% 30.12 in 0.8 mi Calm Calm - N/A   Mist
1:55 AM 35.2 °F 34.2 °F 96% 30.11 in 1.5 mi Calm Calm - N/A   Mist
2:15 AM 34.7 °F 33.8 °F 97% 30.11 in 1.0 mi Calm Calm - N/A   Mist
2:35 AM 34.3 °F 33.4 °F 97% 30.10 in 7.0 mi Calm Calm - N/A   Clear
2:55 AM 34.2 °F 33.3 °F 97% 30.10 in 10.0 mi Calm Calm - N/A   Clear
3:15 AM 33.3 °F 32.4 °F 96% 30.10 in 10.0 mi Calm Calm - N/A   Clear
3:35 AM 33.3 °F 32.5 °F 97% 30.11 in 10.0 mi Calm Calm - N/A   Clear
3:55 AM 33.1 °F 32.2 °F 96% 30.11 in 10.0 mi Calm Calm - N/A   Clear
4:15 AM 33.3 °F 32.5 °F 97% 30.11 in 0.2 mi Calm Calm - N/A Fog Fog
4:35 AM 32.7 °F 32.0 °F 97% 30.11 in 2.0 mi Calm Calm - N/A   Mostly Cloudy
4:55 AM 33.1 °F 32.4 °F 97% 30.11 in 0.8 mi Calm Calm - N/A   Mostly Cloudy
5:15 AM 32.5 °F 32.0 °F 98% 30.11 in 1.8 mi Calm Calm - N/A   Mostly Cloudy
5:35 AM 32.2 °F 31.6 °F 98% 30.11 in 0.5 mi Calm Calm - N/A Fog Fog
5:55 AM 32.0 °F 31.5 °F 98% 30.11 in 1.0 mi Calm Calm - N/A   Overcast
6:15 AM 32.4 °F 31.8 °F 98% 30.11 in 0.2 mi Calm Calm - N/A Fog Fog
6:35 AM 32.2 °F 31.8 °F 99% 30.11 in 1.2 mi Calm Calm - N/A   Overcast
6:55 AM 32.5 °F 32.0 °F 98% 30.11 in 0.8 mi Calm Calm - N/A   Mostly Cloudy
7:15 AM 32.4 °F 32.0 °F 99% 30.12 in 10.0 mi Calm Calm - N/A   Clear
7:35 AM 34.0 °F 33.3 °F 97% 30.12 in 10.0 mi Calm Calm - N/A   Clear
7:55 AM 35.4 °F 34.9 °F 98% 30.12 in 10.0 mi Calm Calm - N/A   Clear
8:15 AM 37.9 °F 37.0 °F 97% 30.12 in 10.0 mi Calm Calm - N/A   Clear
8:35 AM 40.6 °F 39.7 °F 97% 30.12 in 10.0 mi Calm Calm - N/A   Clear
8:55 AM 44.4 °F 41.0 °F 88% 30.11 in 10.0 mi Calm Calm - N/A   Clear
9:15 AM 48.9 °F 40.3 °F 72% 30.11 in 10.0 mi Calm Calm - N/A   Clear
9:35 AM 53.4 °F 39.0 °F 58% 30.11 in 10.0 mi SSW 4.6 mph - N/A   Clear
9:55 AM 56.3 °F 36.5 °F 47% 30.10 in 10.0 mi West 3.5 mph - N/A   Clear
10:15 AM 58.5 °F 35.4 °F 42% 30.10 in 10.0 mi WSW 5.8 mph - N/A   Mostly Cloudy
10:35 AM 59.7 °F 34.9 °F 39% 30.09 in 10.0 mi WSW 5.8 mph - N/A   Mostly Cloudy
10:55 AM 61.0 °F 35.6 °F 39% 30.08 in 10.0 mi SW 5.8 mph - N/A   Scattered Clouds
11:15 AM 62.2 °F 37.0 °F 39% 30.07 in 10.0 mi SW 4.6 mph - N/A   Clear
11:35 AM 63.1 °F 38.1 °F 40% 30.06 in 10.0 mi SSW 5.8 mph - N/A   Clear
11:55 AM 63.7 °F 37.9 °F 39% 30.03 in 10.0 mi South 5.8 mph - N/A   Clear
12:15 PM 63.7 °F 38.1 °F 39% 30.03 in 10.0 mi SSW 4.6 mph - N/A   Clear
12:35 PM 63.9 °F 38.3 °F 39% 30.03 in 10.0 mi SSW 8.1 mph - N/A   Clear
12:55 PM 64.2 °F 38.5 °F 39% 30.01 in 10.0 mi SW 9.2 mph - N/A   Clear
1:15 PM 64.6 °F 38.5 °F 38% 30.00 in 10.0 mi SSW 6.9 mph - N/A   Clear
1:35 PM 65.3 °F 38.3 °F 37% 29.99 in 10.0 mi SW 10.4 mph - N/A   Clear
1:55 PM 65.8 °F 37.9 °F 36% 29.98 in 10.0 mi SSW 10.4 mph 17.3 mph N/A   Clear
2:15 PM 66.6 °F 36.3 °F 33% 29.98 in 10.0 mi WSW 8.1 mph - N/A   Clear
2:35 PM 67.3 °F 36.1 °F 32% 29.97 in 10.0 mi SSW 10.4 mph - N/A   Clear
2:55 PM 67.1 °F 36.5 °F 32% 29.96 in 10.0 mi SSW 9.2 mph - N/A   Clear
3:15 PM 67.3 °F 36.1 °F 32% 29.95 in 10.0 mi WSW 10.4 mph - N/A   Clear
3:35 PM 67.1 °F 35.4 °F 31% 29.95 in 10.0 mi SW 10.4 mph - N/A   Clear
3:55 PM 66.7 °F 36.1 °F 32% 29.94 in 10.0 mi SSW 6.9 mph - N/A   Clear
4:15 PM 66.2 °F 37.0 °F 34% 29.94 in 10.0 mi SSW 9.2 mph - N/A   Clear
4:35 PM 66.2 °F 37.0 °F 34% 29.94 in 10.0 mi SSW 6.9 mph - N/A   Clear
4:55 PM 65.5 °F 36.5 °F 34% 29.95 in 10.0 mi SSW 5.8 mph - N/A   Clear
5:15 PM 64.4 °F 36.9 °F 36% 29.94 in 10.0 mi SSW 6.9 mph - N/A   Clear
5:35 PM 63.3 °F 37.4 °F 38% 29.93 in 10.0 mi SSW 3.5 mph - N/A   Clear
6:00 PM 61.7 °F 37.8 °F 41% 29.93 in 10.0 mi SSW 4.6 mph - N/A   Clear
6:15 PM 60.6 °F 37.6 °F 42% 29.93 in 10.0 mi SSW 4.6 mph - N/A   Clear
6:35 PM 59.5 °F 37.4 °F 44% 29.93 in 10.0 mi South 4.6 mph - N/A   Clear
6:55 PM 59.0 °F 37.2 °F 44% 29.92 in 10.0 mi South 3.5 mph - N/A   Clear
7:15 PM 58.5 °F 37.4 °F 45% 29.92 in 10.0 mi SSW 4.6 mph - N/A   Clear
7:35 PM 57.4 °F 37.8 °F 48% 29.91 in 10.0 mi SSW 3.5 mph - N/A   Clear
7:55 PM 56.5 °F 38.3 °F 51% 29.91 in 10.0 mi SSW 3.5 mph - N/A   Clear
8:15 PM 56.1 °F 38.5 °F 52% 29.91 in 10.0 mi Calm Calm - N/A   Clear
8:35 PM 54.1 °F 39.0 °F 57% 29.90 in 10.0 mi Calm Calm - N/A   Clear
8:55 PM 53.1 °F 40.5 °F 62% 29.90 in 10.0 mi SSW 3.5 mph - N/A   Clear
9:15 PM 52.5 °F 41.0 °F 65% 29.91 in 10.0 mi Calm Calm - N/A   Clear
9:35 PM 52.2 °F 40.1 °F 64% 29.91 in 10.0 mi Calm Calm - N/A   Clear
9:55 PM 49.1 °F 41.5 °F 75% 29.91 in 10.0 mi Calm Calm - N/A   Clear
10:15 PM 46.6 °F 41.2 °F 81% 29.90 in 10.0 mi Calm Calm - N/A   Clear
10:40 PM 45.7 °F 41.2 °F 84% 29.90 in 10.0 mi Calm Calm - N/A   Clear
10:55 PM 45.3 °F 41.4 °F 86% 29.90 in 10.0 mi Calm Calm - N/A   Clear
11:15 PM 44.4 °F 41.5 °F 90% 29.90 in 10.0 mi Calm Calm - N/A   Clear
11:35 PM 44.1 °F 41.7 °F 91% 29.89 in 10.0 mi Calm Calm - N/A   Clear
11:55 PM 43.3 °F 41.0 °F 91% 29.88 in 10.0 mi Calm Calm - N/A   Clear